This demonstration page uses our WeatherBlox Daily Observations layout. Learn more.

Left ArrowRight Arrow

41.86663, -103.66717

Hourly Observations for September 28, 2021

Temp ( °F °C ) Dew Point ( °F °C ) Humidity (%) Winds ( mph kmh ) Pressure ( in mb ) Visibility ( mi km ) Precip ( " mm )
12:53 am 00:53 Clear 62 16.7 36 2.2 38 38 E 8 13 29.74 1007 10 16 N/A
1:53 am 01:53 Clear 60 15.6 37 2.8 42 42 E 9 15 29.72 1007 10 16 N/A
2:53 am 02:53 Clear 60 15.6 38 3.3 44 44 E 9 15 29.72 1006 10 16 N/A
3:53 am 03:53 Clear 58 14.4 40 4.4 51 51 E 8 13 29.71 1006 10 16 N/A
4:53 am 04:53 Clear 54 12.2 41 5 62 62 E 7 11 29.71 1006 10 16 N/A
5:53 am 05:53 Clear 54 12.2 41 5 62 62 E 5 7 29.72 1006 10 16 N/A
6:53 am 06:53 Sunny 53 11.7 42 5.6 66 66 E 6 9 29.75 1007 10 16 N/A
7:53 am 07:53 Sunny 57 13.9 45 7.2 64 64 E 7 11 29.75 1007 10 16 N/A
8:53 am 08:53 Sunny 65 18.3 46 7.8 51 51 ESE 8 13 29.73 1007 10 16 N/A
9:53 am 09:53 Sunny 71 21.7 46 7.8 41 41 ESE 6 9 29.70 1006 10 16 N/A
10:53 am 10:53 Sunny 79 26.1 44 6.7 29 29 ESE 6 9 29.67 1005 10 16 N/A
11:53 am 11:53 Sunny 85 29.4 46 7.8 26 26 ESE 13 20 29.63 1004 10 16 N/A
12:53 pm 12:53 Sunny with Light Rain 89 31.7 42 5.6 19 19 SE 17 28 29.60 1002 10 16 0.00 0.00
1:53 pm 13:53 Mostly Sunny 87 30.6 41 5 20 20 S 17 28 29.58 1002 10 16 0.00 0.00
2:53 pm 14:53 Partly Cloudy 89 31.7 41 5 19 19 S 21 33 29.55 1001 10 16 N/A
3:53 pm 15:53 Mostly Sunny 88 31.1 39 3.9 18 18 SSE 20 31 29.54 1001 10 16 N/A
4:53 pm 16:53 Partly Cloudy 83 28.3 42 5.6 24 24 SE 29 46 29.58 1002 8 13 N/A
5:53 pm 17:53 Mostly Cloudy 78 25.6 44 6.7 30 30 SE 9 15 29.60 1002 10 16 N/A
6:53 pm 18:53 Partly Cloudy 75 23.9 44 6.7 33 33 SE 10 17 29.61 1003 10 16 N/A
7:53 pm 19:53 Partly Cloudy 72 22.2 45 7.2 38 38 E 9 15 29.61 1003 10 16 N/A
8:53 pm 20:53 Mostly Cloudy 72 22.2 46 7.8 40 40 SE 9 15 29.61 1003 10 16 N/A
9:53 pm 21:53 Cloudy 70 21.1 47 8.3 44 44 ESE 9 15 29.60 1003 10 16 N/A
10:53 pm 22:53 Partly Cloudy 65 18.3 48 8.9 54 54 ENE 8 13 29.60 1002 10 16 N/A
11:53 pm 23:53 Mostly Clear 63 17.2 48 8.9 58 58 W 7 11 29.60 1002 10 16 N/A

Powered by AerisWeather